Change the Weather History Date:

Monday, March 11, 2013

  Actual Average Record
Temperature  
Mean Temperature 18 °F 28 °F  
Max Temperature 30 °F 37 °F 62 °F (2012)
Min Temperature 5 °F 19 °F -15 °F (1948)
Degree Days  
Heating Degree Days 47 37  
Month to date heating degree days 501 434  
Since 1 July heating degree days 6886 6693  
Cooling Degree Days 0 0  
Month to date cooling degree days 0 0  
Year to date cooling degree days 0 0  
Moisture  
Dew Point 11 °F    
Average Humidity 78    
Maximum Humidity 88    
Minimum Humidity 68    
Precipitation  
Precipitation 0.00 in 0.03 in 0.61 in (1977)
Month to date precipitation 0.72 0.38  
Year to date precipitation 3.10 1.24  
Snow  
Snow 0.00 in - - ()
Month to date snowfall 3.3  
Since 1 July snowfall 40.0  
Snow Depth 19.00 in    
Sea Level Pressure  
Sea Level Pressure 30.00 in    
Wind  
Wind Speed 10 mph (NNW)    
Max Wind Speed 24 mph    
Max Gust Speed 29 mph    
T = Trace of Precipitation, MM = Missing Value Source: NWS Daily Summary

Daily Weather History Graph

Daily Weather History Graph

Search for Another Location

Airport or City:

Trip Planner

Search our weather history database for the weather conditions in past years. The results will help you decide how hot, cold, wet, or windy it might be!

Date:

Astronomy

Mar. 11, 2013 Rise Set
Actual Time 7:47 AM CDT 7:28 PM CDT
Civil Twilight 7:18 AM CDT 7:58 PM CDT
Nautical Twilight 6:43 AM CDT 8:33 PM CDT
Astronomical Twilight 6:08 AM CDT 9:08 PM CDT
Moon 7:20 AM CDT (3/11) 7:45 PM CDT (3/11)
Length of Visible Light 12h 40m
Length of Day
11h 41m
Waning Crescent, 0% of the Moon is Illuminated
Mar 11
Waning Crescent
Mar 11
New
Mar 19
First Quarter
Mar 27
Full
Apr 2
Last Quarter

Hourly Weather History & Observations

Time (CDT) Temp. Windchill Dew Point Humidity Pressure Visibility Wind Dir Wind Speed Gust Speed Precip Events Conditions
12:56 AM 9.0 °F -7.9 °F 3.9 °F 80% 30.15 in - NNW 15.0 mph - N/A   Unknown
1:56 AM 7.0 °F -9.8 °F 3.0 °F 84% 30.13 in - NNW 13.8 mph - N/A   Unknown
2:56 AM 8.1 °F -9.6 °F 3.0 °F 80% 30.11 in - NNW 16.1 mph - N/A   Unknown
3:56 AM 8.1 °F -8.4 °F 3.0 °F 80% 30.07 in - NNW 13.8 mph - N/A   Unknown
4:56 AM 6.1 °F -7.8 °F 1.9 °F 83% 30.06 in - NNW 9.2 mph - N/A   Unknown
5:56 AM 5.0 °F -10.8 °F 1.0 °F 84% 30.05 in - North 11.5 mph - N/A   Unknown
6:56 AM 6.1 °F -9.5 °F 1.0 °F 80% 30.04 in - NNW 11.5 mph - N/A   Unknown
7:56 AM 7.0 °F -4.5 °F 1.9 °F 80% 30.03 in - North 6.9 mph - N/A   Unknown
8:56 AM 10.0 °F -4.5 °F 5.0 °F 80% 30.03 in - North 11.5 mph - N/A   Unknown
9:56 AM 10.9 °F -0.8 °F 5.0 °F 77% 30.02 in - North 8.1 mph - N/A   Unknown
10:56 AM 12.9 °F 1.6 °F 7.0 °F 77% 30.00 in - North 8.1 mph - N/A   Unknown
11:56 AM 16.0 °F - 9.0 °F 74% 29.98 in - Calm Calm - N/A   Unknown
12:56 PM 18.0 °F 11.1 °F 10.0 °F 71% 29.97 in - North 4.6 mph - N/A   Unknown
1:56 PM 19.9 °F 14.9 °F 12.9 °F 74% 29.96 in - North 3.5 mph - N/A   Unknown
2:56 PM 21.9 °F 17.2 °F 12.9 °F 68% 29.94 in - NNE 3.5 mph - N/A   Unknown
3:56 PM 24.1 °F - 15.1 °F 69% 29.91 in - Calm Calm - N/A   Unknown
4:56 PM 24.1 °F 18.2 °F 16.0 °F 71% 29.94 in - North 4.6 mph - N/A   Unknown
5:56 PM 25.0 °F 15.5 °F 15.1 °F 66% 29.93 in - WNW 9.2 mph - N/A   Unknown
6:56 PM 25.0 °F 14.8 °F 18.0 °F 75% 29.93 in - NW 10.4 mph - N/A   Unknown
7:56 PM 27.0 °F 14.3 °F 21.0 °F 78% 29.92 in - NW 17.3 mph - N/A   Unknown
8:56 PM 28.0 °F 17.0 °F 21.9 °F 78% 29.93 in - NW 13.8 mph - N/A   Unknown
9:56 PM 28.9 °F 19.2 °F 23.0 °F 78% 29.94 in - NW 11.5 mph - N/A   Unknown
10:56 PM 28.0 °F 19.3 °F 24.1 °F 85% 29.94 in - NNW 9.2 mph - N/A   Unknown
11:56 PM 28.9 °F 17.3 °F 24.1 °F 82% 29.93 in - NNW 16.1 mph - N/A   Unknown